Regional Weather Roundup
Issued by NWS

Home | Current Version | Previous Version | Graphics & Text | Print | Product List | Glossary On
Versions: 1 2 3 4 5 6 7 8 9 10 11 12 13 14 15 16 17 18 19 20 21 22 23 24 25 26 27 28 29 30 31 32 33 34 35 36 37 38 39 40 41 42 43 44 45 46 47 48
000
ASUS43 KMPX 050910
RWRMN
WEATHER ROUNDUP FOR MINNESOTA
NATIONAL WEATHER SERVICE TWIN CITIES/CHANHASSEN MN
400 AM CDT SAT SEP 05 2015


NOTE: "FAIR" INDICATES FEW OR NO CLOUDS BELOW 12,000 FEET WITH NO
SIGNIFICANT WEATHER AND/OR OBSTRUCTIONS TO VISIBILITY. N/A MEANS
CURRENT SKY AND/OR WEATHER CONDITIONS ARE NOT AVAILABLE.

MNZ060>063-068>070-051000-
   Twin Cities Metro

CITY           SKY/WX    TMP DP  RH WIND       PRES   REMARKS
TWIN CITIES    PTCLDY    76  71  85 SE8       29.94S
ST PAUL        CLOUDY    75  71  87 SE8       29.94S
CRYSTAL        CLEAR     77  71  82 SE8       29.92S
BLAINE         PTCLDY    77  73  88 S7        29.94S
LAKEVILLE      CLEAR     72  72 100 SE5       29.95S
EDEN PRAIRIE   PTCLDY    76  71  85 SE9       29.92F
SOUTH ST PAUL  PTCLDY    75  70  83 S5        29.94F
LAKE ELMO      MOCLDY    73  70  88 SE3       29.97S
$$
MNZ001>005-007-008-013>017-022>024-027-028-051000-
   Northwest Minnesota

CITY           SKY/WX    TMP DP  RH WIND       PRES   REMARKS
BEMIDJI        CLOUDY    70  69  98 SE3       29.90F
HALLOCK        FOG       64  63  94 CALM      29.90S VSB 3/4
ROSEAU         HAZE      63  57  82 CALM      29.91S VSB 3/4
WARROAD        FOG       63  57  82 CALM      29.92R VSB 1/2
THIEF RVR FALL MOCLDY    70  68  94 NE7       29.89R
CROOKSTON      MOCLDY    70  68  94 E7        29.88R
FOSSTON        MOCLDY    66  64  94 CALM      29.89S
DETROIT LAKES  CLEAR     72  68  88 CALM      29.90R
MOORHEAD       CLEAR     72  68  88 CALM      29.86R
PARK RAPIDS    CLOUDY    73  70  90 S3        29.90S
MAHNOMEN       FAIR      71  68  91 SE3       29.87S
$$
MNZ006-009>011-018-025>026-051000-
   North Central Minnesota

CITY           SKY/WX    TMP DP  RH WIND       PRES   REMARKS
BAUDETTE       CLOUDY    71  69  93 E5        29.92R
FLAG ISLAND    PTCLDY    68  66  94 CALM      29.90R
INTL FALLS     RAIN      67  66  97 NW6       29.96R FOG
WASKISH        MOCLDY    68  66  94 NE5       29.92R
BIG FORK       MOCLDY    70  66  88 SE5       29.94R
LONGVILLE      MOCLDY    72  70  94 E3        29.92S
GRAND RAPIDS     N/A     66  64  94 SE7       29.96S
CRANE LAKE     CLOUDY    64  63  94 CALM      29.99R
ORR            CLOUDY    64  63  94 CALM      29.94S
COOK           CLOUDY    64  64 100 SE5       29.97S
WALKER         LGT RAIN  71  71  99 CALM      29.90F
$$
MNZ012-019>021-037-051000-
   Northeast Minnesota

CITY           SKY/WX    TMP DP  RH WIND       PRES   REMARKS
DULUTH         CLOUDY    67  63  87 NE6       30.01R
ELY            CLOUDY    64  63  94 S5        30.00R THUNDER
HIBBING        CLOUDY    67  65  93 SE7       29.98F
EVELETH        CLOUDY    64  64 100 CALM      29.99F
DULUTH HARBOR  MOCLDY    61  57  88 NE6       30.01R THUNDER
TWO HARBORS    CLOUDY    73  66  78 N3        30.00R THUNDER
SILVER BAY     TSTM      66  64  94 CALM      30.00S
GRAND MARAIS     N/A     64  61  90 CALM      30.00F
G MARAIS ARPRT MOCLDY    63  61  94 CALM      30.05F FOG
$$
MNZ029>031-032-039>041-046>048-054>057-064-051000-
   West Central Minnesota

CITY           SKY/WX    TMP DP  RH WIND       PRES   REMARKS
FERGUS FALLS   CLEAR     73  72  94 SE7       29.85S
WHEATON        PTCLDY    68  66  94 E3        29.85S
MORRIS         CLEAR     72  72 100 SE7       29.84F
ALEXANDRIA     CLOUDY    72  70  93 SE7       29.89F
ELBOW LAKE     MOCLDY    73  71  94 SE5       29.86S
WADENA         MOCLDY    72  68  88 CALM      29.89S
GLENWOOD       PTCLDY    75  70  83 S12G17    29.89S
APPLETON       CLEAR     75  70  83 SE6       29.84R
BENSON         MOCLDY    75  70  83 S7        29.85S
ORTONVILLE     CLEAR     72  68  88 SE7       29.83S
MADISON        CLEAR     72  68  88 SE3       29.84S
WILLMAR        MOCLDY    75  72  88 SE8       29.89S
$$
MNZ033>034-036-042>043-049>051-058-059-051000-
   Central Minnesota

CITY           SKY/WX    TMP DP  RH WIND       PRES   REMARKS
ST CLOUD       CLOUDY    74  69  85 SE7       29.91F
SAUK CENTRE    FAIR      72  70  94 SE3       29.89F
PAYNESVILLE    CLOUDY    76  69  78 E9        29.90F
AITKIN         PTCLDY    73  66  78 E3        29.93R
PINE RIVER     CLOUDY    72  72 100 SE6       29.94S
BRAINERD       CLOUDY    72  69  90 S5        29.92S
STAPLES        CLOUDY    72  68  88 S9        29.89F
LONG PRAIRIE   CLOUDY    72  70  94 E6        29.91S
LITTLE FALLS   TSTM      70  68  94 NE8       29.93R
LITCHFIELD     TSTM      75  73  94 S7        29.91S
BUFFALO        MOCLDY    75  69  81 S5        29.93S THUNDER
MAPLE LAKE     MOCLDY    76  72  87 SE3       29.93S THUNDER
$$
MNZ037-044-045-052-053-051000-
   East Central Minnesota

CITY           SKY/WX    TMP DP  RH WIND       PRES   REMARKS
PRINCETON      MOCLDY    73  70  88 E5        29.93S
MORA           CLEAR     70  68  94 SE3       29.96S
CAMBRIDGE      PTCLDY    75  66  73 SE3       29.92S
RUSH CITY      PTCLDY    72  70  92 SE6       29.95S
MOOSE LAKE     PTCLDY    61  59  94 NE3       29.95S
HINCKLEY       FAIR      72  72 100 SE3       29.96S
CLOQUET        CLOUDY    66  63  88 NE5       29.99S
MCGREGOR       CLOUDY    66  64  94 E5        29.95S
$$
MNZ071>073-080-081-089-090-097-098-051000-
   Southwest Minnesota

CITY           SKY/WX    TMP DP  RH WIND       PRES   REMARKS
MONTEVIDEO     CLEAR     73  70  88 S9        29.86F
GRANITE FALLS  CLEAR     73  70  89 SE8       29.87F
CANBY          CLEAR     76  67  73 S10       29.85R
MARSHALL       CLEAR     73  64  73 S14       29.86F
REDWOOD FALLS  MOCLDY    74  71  91 SE9       29.87F
OLIVIA         MOCLDY    72  68  88 SE9       29.88S
PIPESTONE      PTCLDY    73  66  78 S12       29.88S
WINDOM         PTCLDY    75  68  78 S6        29.91F
WORTHINGTON    PTCLDY    73  64  73 S12       29.91S
JACKSON        MOCLDY    73  70  88 S12G17    29.93F
TRACY          CLEAR     74  69  85 S13       29.87F
SLAYTON        PTCLDY    70  69  96 CALM      29.90F
$$
MNZ065>067-074>077-082>085-091>093-051000-
   South Central Minnesota

CITY           SKY/WX    TMP DP  RH WIND       PRES   REMARKS
MANKATO        MOCLDY    73  70  88 SE10      29.93F
NEW ULM        CLOUDY    75  70  83 S8        29.92R THUNDER
ST JAMES       MOCLDY    73  72  94 SE8       29.92F
FAIRMONT       PTCLDY    73  66  78 S10       29.93F
GLENCOE        MOCLDY    76  73  90 S5        29.92S THUNDER
FARIBAULT      PTCLDY    73  72  94 SE5       29.96S
OWATONNA       PTCLDY    75  70  83 SE8       29.96F
WASECA         PTCLDY    72  70  94 SE6       29.96F
ALBERT LEA     MOCLDY    75  70  83 S8        29.97F
$$
MNZ078>079-086>088-094>096-051000-
   Southeast Minnesota

CITY           SKY/WX    TMP DP  RH WIND       PRES   REMARKS
ROCHESTER      PTCLDY    72  70  93 SE8       30.01R
RED WING       MOCLDY    75  72  88 SE7       29.95F
STANTON        PTCLDY    77  70  78 S6        29.94F
DODGE CENTER   PTCLDY    72  70  94 SE6       29.99F
WINONA         LGT RAIN  73  72  94 CALM      29.99F
AUSTIN         PTCLDY    73  70  88 SE3       29.99S
PRESTON        FAIR      73  68  87 E5        30.03R
$$
ABBREVIATIONS USED IN REMARKS
   TC - TEMPERATURES IN CELSIUS
  WCI - WIND CHILL INDEX
   HX - HEAT INDEX
  VSB - VISIBILITY
$$


USA.gov is the U.S. government's official web portal to all federal, state and local government web resources and services.